Location: Florence
(33.9745°N, 118.2481°W)
Time: 19:46:52
(UTC+00:00)

Sich 1 - Pass Details

Date: 23 March 2023
Orbit: 588 x 620 km, 82.5° (Epoch: 06 June)

Event Time Altitude Azimuth Distance (km) Brightness Sun altitude
Rises 13:12:52 0° 346° (NNW) 2,904 6.4 -9.1°
Reaches altitude 10° 13:15:10 10° 340° (NNW) 1,994 5.5 -8.6°
Maximum altitude 13:19:24 46° 267° (W) 833 3.3 -7.7°
Drops below altitude 10° 13:23:35 10° 194° (SSW) 1,975 5.4 -6.9°
Sets 13:25:51 0° 189° (S) 2,873 6.3 -6.4°
